Location: Byszew
(52.1813°N, 19.2693°E)
Time: 18:57:26
(UTC+00:00)

Cosmos 2333 - Pass Details

Date: 03 March 2021
Orbit: 829 x 866 km, 70.9° (Epoch: 17 April)

Event Time Altitude Azimuth Distance (km) Brightness Sun altitude
Rises 18:32:07 0° 198° (SSW) 3,377 7.4 -19.9°
Reaches altitude 10° 18:34:33 10° 195° (SSW) 2,452 6.6 -20.3°
Maximum altitude 18:40:06 64° 115° (ESE) 935 4.1 -21.1°
Drops below altitude 10° 18:45:45 10° 35° (NE) 2,494 6.5 -21.9°
Sets 18:48:15 0° 33° (NNE) 3,439 7.2 -22.3°
